Terminal Aerodrome Forecast
Issued by NWS Caribou, ME

Home | Current Version | Previous Version | Text Only | Print | Product List | Glossary On
Versions: 1 2 3 4 5 6 7 8 9 10 11 12 13 14 15 16 17 18
000
FTUS41 KCAR 301759
TAFBGR
TAF
KBGR 301759Z 3018/3118 13005KT 1 1/2SM -SN BKN010 OVC015
     FM301900 08004KT 1/2SM SN OVC007
     FM310900 34016G35KT 1 1/2SM -SN BLSN OVC015=

USA.gov is the U.S. government's official web portal to all federal, state and local government web resources and services.